Theta_e
313 315 316 317 317 316 315 315 315 315 314 315 316 316 316 316 316 315 313 310 310 313 315 314 314 315 315 312 309 307 306 307 307 306 305 304 304 303 303 305 306 306 307 307 307 308 308 309 310 311 312 314 314 314 315 316 317 317 318 319 319 320 319 318 318 319 319 319 319 319 319 318 316 316 317 316 317 316 316 316 315 316 316 316 316 316
312 316 317 317 317 315 314 314 313 312 313 313 314 315 315 316 316 314 312 310 310 313 314 313 312 315 314 311 308 307 307 307 307 306 305 304 303 303 303 304 305 306 307 307 307 307 308 309 310 310 312 313 314 315 315 315 315 316 317 317 316 317 316 315 315 316 317 317 317 317 316 316 314 314 314 315 314 314 314 313 313 313 313 312 312 312
314 316 317 316 313 311 311 311 311 312 312 313 314 315 316 316 316 314 311 309 309 312 315 312 313 316 314 308 307 307 307 306 304 304 304 303 303 302 302 304 305 305 305 305 306 307 308 308 309 309 310 311 313 314 315 315 315 315 316 316 316 316 316 314 313 313 313 313 313 313 313 312 311 311 311 311 310 310 309 309 309 308 308 307 307 307
316 316 315 314 312 311 310 309 310 312 312 313 314 315 316 316 317 317 314 310 309 310 312 313 313 316 313 307 306 305 305 304 302 302 302 301 302 301 302 303 304 304 304 305 306 306 307 307 307 308 308 309 310 311 313 313 313 313 313 313 313 312 312 311 310 309 309 309 308 308 309 309 308 308 307 307 306 306 306 306 306 306 306 305 306 305
318 314 312 312 312 312 313 310 311 313 314 314 314 315 317 316 316 317 314 311 311 310 310 312 315 317 314 311 309 305 303 303 302 301 301 300 301 301 302 303 304 304 304 305 306 306 306 306 306 306 307 307 307 308 309 309 309 309 309 308 308 307 307 307 307 307 307 307 307 307 307 307 306 306 305 305 305 305 305 305 305 305 305 305 305 305
317 312 310 312 312 313 315 313 313 315 317 316 315 314 316 316 315 315 314 313 315 316 312 312 317 318 314 312 311 306 304 304 302 302 302 301 300 300 301 302 303 304 305 305 305 305 305 305 306 306 306 306 306 306 306 306 306 306 306 306 306 306 306 306 306 306 306 306 306 306 306 306 305 305 305 305 304 304 304 304 304 304 304 304 304 303
315 311 312 314 313 314 315 315 315 315 316 318 316 314 313 315 315 314 314 315 317 319 312 309 316 318 315 315 311 307 306 305 303 303 303 302 300 300 300 301 302 303 304 305 305 305 305 305 305 305 305 305 305 305 305 305 305 305 305 305 305 304 304 304 304 304 304 304 304 304 304 305 305 304 304 304 303 303 303 303 302 302 302 301 301 301
314 311 312 315 315 315 315 316 315 313 317 319 315 313 313 313 314 314 315 316 316 317 313 310 314 316 317 316 310 306 308 306 304 304 304 303 301 300 300 301 302 303 303 304 304 305 305 305 305 305 305 305 305 305 305 304 304 304 304 304 304 303 303 303 303 303 303 303 303 303 303 303 303 303 303 302 302 302 301 301 300 300 299 299 298 298
313 314 314 315 315 315 316 317 314 313 317 317 310 310 312 312 314 314 315 316 314 315 316 315 314 315 317 315 309 307 309 309 306 305 305 304 302 300 300 301 302 303 303 303 304 304 304 305 305 305 304 304 304 304 304 304 303 303 303 303 303 302 302 302 302 303 303 302 302 302 302 302 302 302 302 301 300 299 299 298 298 297 297 296 296 295
312 312 312 314 316 316 316 314 312 315 316 312 308 310 310 311 312 313 314 315 313 314 318 317 315 315 317 317 313 310 311 312 310 306 306 305 302 301 301 301 302 302 303 303 304 304 304 304 304 304 304 304 304 303 303 303 303 302 302 302 302 302 302 302 302 302 302 301 301 301 301 301 301 301 300 299 298 297 296 296 295 295 294 294 294 294
309 308 310 313 314 313 311 307 307 312 312 309 310 312 312 311 311 312 313 313 314 316 317 315 314 315 316 317 316 314 313 312 311 308 306 305 303 302 301 301 302 302 303 303 303 303 304 304 304 304 304 303 303 303 303 302 302 302 302 302 302 301 301 301 301 301 301 300 300 300 300 300 300 299 298 297 295 294 294 294 293 293 293 293 293 293
309 309 310 311 310 309 310 308 306 306 307 310 314 314 315 314 312 313 313 313 317 318 314 309 309 313 316 317 315 314 311 309 310 309 307 305 304 302 301 301 301 302 302 303 303 303 303 303 303 303 303 303 303 302 302 302 302 302 301 301 301 301 301 301 300 300 300 299 299 299 298 298 297 296 295 294 293 293 293 293 293 293 293 293 292 293
313 313 311 310 308 308 312 311 308 306 307 311 314 314 318 317 314 316 316 314 316 316 310 306 309 312 315 316 314 313 310 308 309 309 307 306 304 303 301 301 301 302 302 302 303 303 302 303 302 302 302 302 302 302 301 301 301 301 301 300 301 301 300 300 299 299 298 298 297 297 296 295 294 293 293 293 293 293 293 292 292 292 292 292 292 292
317 316 312 311 310 309 313 314 312 311 310 312 315 316 319 318 316 318 316 313 315 313 307 305 309 312 314 314 313 311 308 306 305 305 306 306 305 303 302 302 302 302 302 302 302 302 302 302 302 302 302 302 301 301 301 301 300 300 300 300 300 300 299 298 298 297 297 296 295 295 294 294 293 293 293 293 293 293 292 292 292 292 292 292 292 292
320 319 314 313 313 311 313 314 315 314 311 313 314 315 317 317 318 319 317 316 316 313 307 306 310 314 315 311 307 305 303 301 302 302 302 304 304 303 302 302 302 302 302 302 302 302 302 302 302 301 301 301 301 301 300 300 300 300 299 299 299 299 298 297 296 296 295 295 294 293 293 293 292 293 293 293 293 293 292 292 292 292 292 292 292 291
320 320 313 310 310 310 312 313 313 314 313 312 311 313 315 315 316 314 312 312 312 312 310 309 311 313 312 307 300 301 302 301 301 301 301 303 303 302 302 301 302 302 302 302 302 302 302 302 301 301 301 301 300 300 300 300 299 299 299 298 298 298 297 296 295 295 294 294 293 293 292 292 293 293 293 293 292 292 292 292 291 291 291 291 291 290
318 317 311 308 308 308 309 310 310 312 314 312 311 313 313 312 313 312 309 307 308 314 315 311 312 311 310 308 303 301 303 302 302 302 302 302 302 302 302 301 301 302 302 302 302 302 302 301 301 301 301 301 300 300 300 299 299 298 298 298 297 297 296 295 294 294 293 293 293 292 293 293 292 292 292 292 292 291 291 291 290 290 290 290 290 289
318 316 310 310 311 307 304 307 308 308 310 312 313 314 312 311 312 313 314 312 311 316 315 312 314 313 312 312 306 303 305 305 303 302 302 302 302 301 301 301 302 302 302 302 302 302 302 301 301 301 300 300 300 300 299 299 298 298 297 297 296 296 296 295 294 293 292 292 292 292 292 292 292 292 291 291 291 290 290 290 290 289 289 289 289 289
316 316 312 308 310 307 304 308 311 308 308 310 312 312 313 315 315 313 315 316 315 317 315 312 311 312 313 314 309 307 309 307 304 302 302 302 302 302 302 301 302 302 302 302 302 302 301 301 301 300 300 300 300 299 299 298 297 297 296 295 295 295 294 294 293 292 292 292 292 292 292 292 291 291 291 291 291 290 290 290 289 289 289 289 289 288
313 316 315 308 308 308 307 310 313 311 308 307 309 310 311 313 315 314 314 315 316 317 315 313 312 312 313 313 311 311 310 309 306 302 302 303 303 302 302 302 302 302 302 302 302 302 301 301 301 300 300 300 299 298 298 297 297 296 295 294 294 293 293 293 292 292 292 292 292 292 291 291 291 291 291 291 290 290 290 289 289 289 289 288 288 288
312 315 316 310 307 309 310 312 313 313 310 309 311 311 311 310 311 312 312 312 313 316 316 315 315 314 312 311 312 312 311 310 308 305 305 305 304 303 303 303 303 303 303 303 302 302 301 301 300 300 299 299 298 298 297 296 296 295 294 293 293 293 292 292 292 291 291 291 291 291 291 291 291 291 291 291 290 290 289 289 289 288 288 288 288 288
313 314 315 312 309 311 313 310 309 311 312 312 312 312 313 312 311 314 314 311 310 313 314 313 315 315 310 307 309 310 309 308 308 308 307 305 304 304 304 303 303 303 303 303 302 302 301 301 300 299 299 298 298 297 296 296 295 294 294 293 292 292 292 291 291 291 291 291 291 291 291 291 291 291 290 290 290 289 289 289 288 288 288 288 288 288
313 313 314 313 311 311 310 305 303 305 308 310 311 312 313 313 313 316 317 312 309 310 310 309 312 314 308 304 305 306 305 305 306 307 307 306 305 304 303 303 303 303 303 302 302 302 301 301 300 299 299 298 297 296 296 295 294 293 293 292 292 291 291 291 291 291 291 291 291 291 291 291 291 291 290 290 290 289 289 288 288 288 288 288 288 288
312 314 315 314 311 309 307 304 303 303 306 309 310 310 312 313 314 315 314 313 311 311 310 310 312 313 307 302 303 303 302 302 302 304 306 305 304 303 303 303 302 302 302 302 302 301 301 300 299 299 299 298 297 296 296 295 294 293 292 292 291 291 291 291 291 291 291 291 291 291 291 291 291 290 290 290 290 289 289 288 288 288 288 288 288 288
313 316 316 314 314 314 311 310 309 306 306 310 310 308 311 313 313 313 311 310 312 313 313 312 314 313 308 303 303 302 300 301 301 302 303 304 303 302 302 302 302 301 302 302 302 301 301 300 300 299 299 298 297 296 295 295 293 292 292 291 291 291 291 291 291 290 291 291 291 291 291 291 291 290 290 290 289 289 289 289 288 288 288 287 287 287
315 317 317 316 318 318 317 316 314 311 309 310 309 308 310 312 311 312 311 311 313 313 312 313 314 312 308 304 305 303 302 303 303 301 301 301 302 302 302 303 302 302 303 303 302 301 301 300 300 299 299 298 297 296 296 295 293 292 291 291 291 291 291 291 290 290 290 291 291 290 290 290 290 290 290 290 290 289 289 289 288 288 288 287 287 287
314 316 316 317 318 317 316 315 313 313 313 312 310 309 309 309 310 312 312 313 313 311 311 313 314 313 310 307 307 306 304 305 305 303 301 301 303 304 303 303 304 304 304 303 302 301 301 300 300 300 299 298 297 296 296 295 293 292 291 291 291 290 291 291 290 290 291 291 290 290 290 290 290 290 290 290 289 289 289 289 289 288 288 287 287 287
314 315 314 316 315 313 313 313 311 313 313 312 311 310 308 308 310 312 313 313 313 312 313 314 313 313 312 309 308 308 306 305 305 304 303 303 305 305 304 304 304 305 304 303 302 301 301 300 300 299 299 297 296 296 296 295 293 292 292 291 291 290 291 290 290 290 290 291 290 290 290 290 290 290 290 289 289 289 289 289 289 288 288 287 287 287
313 314 313 314 313 311 311 311 311 312 312 311 312 312 309 308 309 311 312 312 312 313 314 313 311 312 312 310 309 309 307 306 306 305 305 305 306 306 305 305 305 305 305 304 303 303 302 301 301 300 299 297 296 296 295 294 293 292 291 290 290 291 291 290 290 290 291 290 290 290 290 290 290 290 290 289 289 289 289 289 289 288 288 288 287 287
311 313 312 311 313 311 309 308 308 309 311 310 310 311 310 309 308 309 311 311 312 313 313 311 310 310 310 310 310 309 307 307 306 306 306 306 306 306 305 305 305 305 305 305 305 304 303 302 301 299 298 297 296 296 295 294 294 292 291 290 290 290 290 290 290 290 291 290 290 290 290 290 290 290 289 289 289 289 289 289 289 288 288 288 288 287
310 312 309 309 312 311 306 306 306 307 309 310 309 309 309 307 307 308 310 311 310 311 310 310 310 310 308 308 308 307 305 305 305 304 305 305 306 305 305 305 305 305 305 305 305 304 303 302 300 298 297 297 297 296 296 296 295 294 292 291 290 290 290 290 290 290 290 290 290 290 290 290 290 289 289 289 289 289 289 289 288 288 288 288 288 287
309 309 307 309 313 311 306 305 306 306 307 309 310 310 308 306 307 308 308 309 309 309 309 309 310 310 307 307 307 305 304 304 305 304 304 304 305 304 304 304 304 304 303 303 303 303 302 301 300 299 298 297 297 297 297 296 295 294 293 291 291 290 290 289 290 290 290 290 290 290 290 290 290 289 289 289 289 289 289 289 288 288 288 288 288 287
308 308 307 309 313 310 304 304 306 307 309 311 311 310 308 307 308 308 307 307 307 308 309 309 310 309 307 305 305 304 303 304 304 304 304 304 304 303 303 302 302 301 301 301 301 301 301 301 300 299 298 297 298 298 298 297 297 296 294 292 291 291 290 289 289 290 290 290 291 291 290 290 290 289 289 289 289 289 289 288 288 288 288 288 287 287
306 308 308 309 311 308 302 303 307 309 311 312 309 309 309 308 308 308 307 307 307 307 308 309 308 307 306 305 305 304 304 304 304 304 304 304 303 302 301 300 299 299 298 298 299 300 301 300 300 299 299 298 299 299 299 298 298 297 295 293 292 291 290 289 289 290 290 290 291 291 290 290 290 289 289 289 289 289 288 288 288 288 287 287 287 286
306 308 308 308 307 305 302 304 309 310 310 308 304 302 304 306 307 308 307 307 307 307 307 307 307 306 305 304 304 304 304 303 303 303 302 302 301 300 299 298 298 297 297 297 298 299 300 300 299 298 298 298 298 298 298 298 297 296 294 292 292 291 289 289 289 290 290 290 291 291 290 290 290 290 289 289 289 288 288 288 288 287 287 287 286 286
307 308 307 307 305 303 303 306 309 309 307 306 302 298 298 302 304 305 305 305 305 305 305 305 306 305 304 303 302 302 302 300 300 300 300 300 299 298 298 297 297 297 296 297 297 298 298 298 298 297 297 296 296 296 296 296 296 297 295 293 292 291 290 289 289 290 290 290 290 290 290 290 290 290 289 289 288 288 288 287 287 287 287 286 286 285
306 308 307 308 306 305 305 306 308 307 306 307 305 300 299 302 302 303 305 305 304 304 303 304 305 304 303 302 301 300 298 297 298 299 300 299 298 298 297 297 297 296 296 296 296 296 296 296 296 296 296 296 296 296 296 296 296 296 296 294 293 291 290 288 288 289 290 290 290 290 290 290 290 289 289 288 288 288 287 287 287 287 286 286 286 285
303 306 308 309 308 307 307 306 307 307 306 307 306 302 300 301 302 302 304 304 302 301 302 304 304 304 303 301 298 297 297 297 298 299 299 298 297 297 297 296 296 296 296 296 296 295 296 295 295 296 296 296 296 296 296 296 296 296 296 295 293 291 290 288 288 289 290 290 290 290 290 290 289 288 288 288 288 288 287 287 287 287 286 286 285 285
300 302 305 308 308 308 307 307 307 307 307 307 306 300 297 299 300 300 303 303 300 297 298 302 303 303 302 299 296 295 297 298 299 299 299 297 296 295 296 296 295 295 295 295 295 295 295 295 295 295 295 295 295 295 295 296 296 297 296 295 294 292 290 289 289 289 290 290 290 290 290 289 288 288 288 288 288 287 287 287 287 286 286 286 285 285
300 302 304 306 308 308 308 308 307 307 306 306 302 296 295 297 300 302 304 303 298 294 296 300 301 301 300 298 295 295 297 298 299 299 297 296 295 295 295 295 295 295 295 295 295 295 295 295 295 295 295 294 294 294 294 295 296 296 295 295 293 292 291 290 290 290 290 290 290 290 289 288 288 288 288 288 288 287 287 287 286 286 286 285 285 284
300 301 303 305 307 307 308 308 307 307 307 303 298 295 295 297 300 303 304 300 295 294 297 298 299 299 298 297 295 296 297 298 298 297 296 295 294 294 294 294 294 294 294 294 294 294 294 293 293 293 293 294 293 294 294 294 294 294 294 293 292 292 291 291 291 290 291 290 290 289 288 288 288 288 288 288 287 287 287 286 286 286 285 285 285 284
301 301 302 304 305 306 307 308 307 308 305 299 295 294 295 298 302 302 300 297 295 296 297 297 298 297 297 296 296 296 297 297 296 295 294 294 294 293 294 294 293 293 293 293 292 292 292 292 292 292 293 293 293 293 293 293 293 293 292 292 292 292 292 292 291 291 291 290 289 288 288 288 288 288 288 288 287 287 286 286 285 285 285 285 285 283
302 302 301 303 305 304 305 306 307 308 303 296 295 295 295 298 302 299 296 295 296 296 296 296 297 296 296 296 296 296 296 295 295 294 294 293 293 293 293 293 293 292 292 292 292 291 291 291 291 292 292 292 293 293 293 292 292 292 292 292 291 291 291 291 291 291 290 289 288 288 288 288 288 288 288 287 287 286 286 285 285 285 285 285 284 283
302 302 301 303 304 303 304 306 305 303 299 296 297 299 297 298 299 298 296 296 295 295 296 296 296 296 296 295 295 295 295 295 294 294 293 293 293 293 293 293 292 292 292 292 292 292 291 291 291 291 292 292 292 292 292 292 291 291 291 291 290 290 290 291 291 290 289 289 288 288 288 288 288 288 287 287 286 286 285 285 285 285 285 284 283 282
301 300 299 301 302 302 302 302 299 296 296 296 298 299 298 298 298 298 298 296 295 295 296 295 295 295 295 295 295 295 294 294 294 294 293 293 293 293 293 293 292 292 292 292 292 292 292 292 291 291 291 292 292 292 291 291 291 290 290 290 290 290 290 290 290 290 289 289 288 288 288 288 288 287 287 286 286 285 285 285 284 284 284 283 282 281
295 293 294 297 298 297 296 295 294 294 295 296 297 298 298 298 298 298 298 297 296 295 295 295 295 295 295 295 295 294 294 294 293 293 293 293 293 293 293 293 293 292 292 292 292 292 292 292 291 291 291 292 292 291 291 290 290 290 290 290 290 290 290 290 290 290 289 288 288 288 288 288 287 287 287 286 286 285 285 284 284 284 284 283 281 280
292 290 293 295 297 297 296 294 293 295 295 295 296 297 297 298 298 298 297 297 296 295 295 295 295 295 294 294 294 294 294 294 293 293 293 292 292 292 293 293 293 292 292 292 292 292 292 292 292 291 291 291 291 291 291 290 290 290 290 290 290 290 290 290 290 289 289 288 288 288 288 287 287 287 286 286 285 285 284 284 284 284 283 282 281 280
294 292 294 295 295 295 294 292 291 292 293 294 295 296 297 297 297 297 297 297 296 296 296 295 295 295 294 294 294 294 294 293 293 293 293 292 292 292 292 292 292 292 292 292 291 291 291 291 291 291 291 291 291 291 291 291 290 290 290 290 290 290 290 290 289 289 289 288 288 288 287 287 287 286 286 286 285 284 284 284 284 283 282 281 280 279
294 293 294 294 294 293 292 290 290 291 292 293 294 296 297 297 296 296 296 296 295 295 295 295 294 294 294 294 294 294 293 293 293 293 293 292 292 292 292 292 292 292 292 292 292 291 291 291 291 291 291 291 291 291 291 291 290 290 290 290 290 290 290 290 289 289 289 288 288 287 287 287 287 286 286 285 285 284 284 284 283 283 282 280 279 279
293 294 293 292 293 294 293 292 291 292 293 294 294 295 295 295 295 295 295 295 295 294 294 294 294 294 294 294 294 293 293 293 293 293 293 293 293 292 292 292 292 292 292 292 292 291 291 291 291 291 291 291 291 291 291 291 291 290 290 290 290 290 289 289 289 289 289 288 288 287 287 287 286 286 285 285 284 284 283 283 283 282 281 280 279 278
293 295 294 293 295 295 294 293 293 293 294 294 294 294 294 294 294 294 294 294 294 293 293 293 293 293 293 293 293 293 293 293 293 293 292 292 292 292 292 292 292 292 292 292 291 291 291 291 291 291 291 291 291 291 291 291 291 291 290 290 290 290 289 289 289 289 288 288 287 287 287 287 286 286 285 284 284 284 283 283 282 281 280 279 278 277
Wind_Speed
6 5 6 8 8 9 12 12 7 1 3 1 2 3 5 7 6 2 3 2 1 3 7 7 8 12 8 4 6 5 5 5 5 5 4 4 4 4 5 6 7 6 6 5 4 4 4 4 5 5 6 9 10 10 11 12 13 14 15 15 16 16 13 11 10 10 9 9 9 9 9 9 8 7 6 6 5 4 3 2 2 2 2 2 2 3
6 7 10 10 4 4 7 7 3 2 3 3 4 5 5 7 7 2 2 2 2 4 4 2 5 11 6 4 5 5 5 5 4 4 4 4 4 4 6 7 7 7 7 6 5 6 6 7 7 7 7 9 10 10 12 13 14 15 14 14 14 13 11 10 10 10 9 9 8 8 8 8 8 8 6 7 6 5 4 4 4 4 4 3 2 2
5 9 12 6 5 5 3 3 6 6 5 4 4 5 5 5 4 2 2 2 2 4 2 2 5 9 2 5 4 4 4 3 2 3 4 4 4 4 6 8 8 8 8 8 8 8 9 9 10 10 10 10 11 12 13 14 14 15 14 13 13 12 10 10 10 10 10 10 9 9 10 10 11 11 10 10 10 9 7 7 7 7 7 7 6 6
6 8 8 6 8 6 3 4 7 5 5 6 5 5 6 3 2 4 2 3 2 2 2 1 6 8 3 4 3 3 2 2 2 2 3 4 4 6 8 9 10 10 10 11 11 12 12 13 13 13 14 14 14 15 15 15 15 15 15 15 14 14 14 14 14 14 15 15 15 15 15 14 14 14 13 12 12 11 9 9 10 10 10 9 8 8
5 0 2 8 8 8 5 5 7 6 5 7 7 8 9 5 6 6 1 2 2 2 2 3 6 6 4 4 3 4 3 3 3 3 4 5 7 8 10 11 12 13 14 14 15 15 16 16 17 17 18 18 18 18 18 18 17 18 18 18 18 18 18 18 18 17 17 16 16 15 14 14 14 14 13 12 12 11 10 10 10 11 11 10 10 9
4 4 6 8 7 8 7 6 9 8 6 6 8 12 13 10 7 5 2 2 4 3 3 2 5 3 3 4 4 4 4 4 4 5 6 6 7 9 9 11 13 15 16 17 18 19 19 20 20 20 20 21 20 20 20 20 20 20 20 20 20 20 20 19 18 17 16 14 14 13 12 12 11 12 12 11 11 11 10 10 10 10 10 10 9 9
2 5 5 6 7 8 8 7 9 9 6 4 4 9 12 10 5 5 6 5 4 2 1 1 5 3 2 3 5 5 5 5 4 5 7 7 8 9 10 13 15 16 18 19 20 21 21 22 22 22 22 22 22 22 22 21 21 20 20 19 19 19 19 18 18 16 14 12 12 11 10 10 9 9 10 11 10 11 10 10 10 9 9 9 9 9
4 6 4 5 7 7 7 6 7 10 7 2 1 1 6 7 7 8 8 6 3 2 1 1 2 4 5 2 4 5 5 5 6 7 8 10 10 10 12 15 18 19 20 21 22 22 23 23 23 23 23 22 22 21 21 20 20 19 18 18 17 17 17 16 16 14 12 10 10 9 8 8 8 8 10 10 10 10 10 9 9 9 9 9 9 9
3 7 8 9 7 6 6 2 8 13 6 1 2 2 4 4 5 6 6 5 1 1 4 5 3 3 5 2 3 3 4 6 8 9 11 13 13 12 15 18 19 20 21 22 23 23 23 23 23 23 22 21 21 20 19 18 18 17 16 16 15 15 15 15 14 13 11 9 8 7 5 5 7 8 9 10 10 10 9 8 9 9 9 9 9 9
2 3 6 8 7 6 3 3 4 11 5 3 5 6 7 5 4 3 3 3 2 3 7 6 7 5 5 3 4 3 4 7 8 9 11 14 14 15 18 20 21 21 22 23 24 24 24 23 23 22 21 21 20 19 18 17 16 15 15 14 13 13 14 14 13 11 10 8 6 5 5 5 7 9 10 10 10 10 9 8 9 9 9 9 8 9
2 1 1 4 4 3 5 5 3 1 4 9 8 6 7 5 4 2 1 1 2 5 4 2 5 5 4 3 6 4 1 2 6 8 10 12 15 17 19 21 22 23 24 24 25 24 24 23 23 22 21 20 19 18 17 16 15 14 14 13 12 12 13 12 11 9 8 7 6 6 6 6 8 9 10 11 10 10 9 8 8 8 8 8 8 8
1 1 1 3 4 6 7 5 5 4 4 6 4 5 5 3 3 2 2 2 5 5 1 2 1 5 6 3 3 3 1 2 5 8 11 15 17 18 19 22 24 24 25 26 26 25 24 23 23 22 21 20 19 18 17 16 15 13 13 11 10 11 12 11 10 9 8 8 7 7 8 8 10 10 10 10 10 9 8 7 7 7 7 7 7 8
2 3 0 1 5 7 6 5 5 2 2 3 4 7 6 4 4 4 3 3 5 3 2 1 1 4 6 5 4 3 3 3 2 3 8 16 19 19 21 25 26 26 26 27 27 26 25 24 23 22 21 20 19 18 16 15 14 13 12 10 9 10 11 11 10 10 9 9 9 9 9 9 11 11 10 9 8 7 6 6 6 6 6 6 6 7
4 2 2 3 3 8 10 7 5 5 6 8 7 8 8 5 5 5 3 2 4 1 2 1 1 2 3 4 5 3 1 1 1 2 5 13 18 20 25 28 27 27 28 28 28 27 26 25 23 22 21 20 19 18 16 15 14 12 12 10 9 10 11 11 11 10 10 10 10 10 10 10 11 9 8 7 6 6 5 5 5 5 5 6 8 9
7 3 6 7 4 11 13 5 2 6 8 7 4 4 5 5 4 4 3 3 2 2 3 1 2 4 4 1 2 2 2 2 1 3 5 10 16 21 27 29 28 29 29 29 29 28 26 25 24 23 22 20 19 18 16 15 14 13 12 11 10 10 12 12 11 11 10 11 11 11 11 10 9 7 6 5 4 4 4 4 5 6 7 8 9 10
8 5 2 2 3 11 11 2 2 6 6 3 1 1 4 3 2 1 0 1 2 1 2 3 3 3 2 1 1 1 2 2 2 3 6 9 15 22 27 29 30 31 31 31 31 29 28 26 25 24 23 21 20 18 17 15 15 14 13 13 11 11 12 12 12 12 12 12 12 11 10 9 7 5 4 3 3 3 3 4 5 6 7 8 8 9
5 2 2 2 2 4 4 2 2 2 4 3 3 5 2 1 2 3 1 3 2 4 3 4 4 2 1 1 2 1 2 4 4 4 6 9 15 22 27 31 34 34 34 33 32 31 29 28 26 25 24 22 21 19 18 17 16 15 14 14 13 13 13 14 14 13 13 12 11 10 9 7 5 4 3 2 1 2 3 4 4 5 6 7 8 9
4 2 1 1 2 2 1 4 3 2 1 4 5 5 2 1 1 1 2 2 2 5 3 4 7 6 5 3 2 3 5 7 6 6 7 9 14 21 27 33 36 36 35 35 33 32 30 29 28 27 25 23 21 20 19 18 17 16 15 15 14 14 15 15 15 14 13 12 10 9 8 7 5 4 3 2 1 3 4 5 6 7 9 10 10 11
3 2 1 1 2 3 2 3 3 1 1 0 2 2 2 2 3 3 3 2 3 5 3 4 5 6 7 5 5 7 10 9 9 8 8 12 17 21 26 34 37 37 37 36 35 34 32 31 30 28 26 24 23 22 21 20 19 18 17 16 16 15 16 16 16 15 14 12 11 9 8 7 6 4 2 1 2 4 6 7 9 10 11 11 12 12
2 3 2 2 1 3 2 5 7 5 2 1 1 2 1 2 3 3 2 2 3 4 3 2 3 4 6 7 10 13 12 10 11 9 10 15 20 24 29 37 41 41 40 39 38 37 35 33 31 28 27 25 24 24 23 22 21 20 20 19 18 18 17 17 17 16 14 13 11 10 9 8 6 3 1 1 3 6 7 9 10 11 12 12 13 13
2 3 3 3 1 3 5 6 7 8 7 5 6 6 4 1 0 1 1 1 1 4 4 4 5 3 4 4 9 12 9 10 12 11 11 16 21 27 35 43 45 44 44 42 40 39 36 34 32 29 28 26 26 26 25 24 23 22 22 21 21 20 19 19 18 16 15 14 12 11 9 7 5 2 1 3 5 7 9 11 12 13 13 14 14 15
3 3 3 5 4 6 4 0 1 3 4 5 6 8 8 5 3 4 5 2 1 3 2 2 5 2 3 1 2 4 2 6 11 11 11 15 24 32 38 43 45 46 45 43 41 40 37 35 33 31 30 29 29 28 27 25 25 24 24 23 22 21 20 20 18 17 15 14 13 11 9 7 5 3 3 4 7 9 11 13 14 15 15 16 16 17
1 1 3 4 3 4 1 2 0 2 2 2 3 4 6 6 6 7 7 3 2 1 1 1 3 2 2 1 1 1 1 1 6 9 9 13 23 31 33 37 42 43 43 42 41 40 38 36 34 32 32 31 31 30 29 27 27 26 25 24 23 23 22 20 18 17 16 15 13 11 9 8 5 3 4 6 8 11 12 14 15 16 17 18 18 19
2 2 4 3 2 1 2 0 1 0 1 3 3 2 4 5 3 2 2 3 4 5 3 2 4 3 1 0 2 1 1 2 4 10 11 12 18 25 29 33 36 38 39 40 40 39 38 36 35 34 34 34 34 33 31 30 29 28 27 26 25 24 23 21 20 19 17 15 14 12 10 8 5 4 5 7 9 11 13 15 16 17 18 19 20 20
7 3 5 5 3 3 3 3 4 3 3 4 2 2 4 2 4 3 2 2 4 6 8 6 8 4 2 1 2 1 1 3 5 10 12 11 13 19 25 29 32 34 37 39 40 39 39 38 38 38 38 38 37 35 33 32 31 30 29 28 27 26 24 22 21 19 18 16 15 13 10 8 6 5 6 7 9 11 13 15 17 18 20 21 21 22
7 3 5 8 8 9 8 6 6 5 4 2 1 3 4 5 8 5 3 4 6 5 9 8 8 2 3 2 4 2 2 4 6 9 12 13 14 16 19 24 28 32 36 39 41 42 41 41 41 41 41 41 39 36 34 33 32 32 31 30 29 27 25 24 22 21 19 18 16 14 11 9 7 7 7 7 9 11 14 16 18 19 21 22 23 24
3 2 7 10 7 4 3 1 2 6 6 5 4 6 7 8 9 7 4 6 6 5 6 10 10 6 4 6 6 5 4 5 6 7 11 15 17 16 16 19 24 28 32 37 41 42 43 44 45 44 44 43 40 38 36 35 34 33 32 31 30 28 26 25 24 22 21 19 17 15 12 10 9 8 7 8 9 12 15 17 19 21 22 24 24 25
2 4 7 7 4 1 3 2 2 6 8 10 8 8 10 10 9 10 9 6 5 5 8 10 8 10 10 8 9 7 6 6 5 7 11 15 17 16 15 16 19 23 28 34 39 42 44 46 47 47 46 44 41 39 37 36 35 34 33 33 31 29 28 27 25 24 22 20 18 16 14 12 11 9 9 9 10 13 16 18 20 22 24 25 26 27
2 4 3 2 3 0 4 2 2 3 3 6 9 11 12 12 12 13 12 7 7 8 12 5 8 11 12 7 10 9 8 9 9 10 12 13 13 14 14 15 17 20 24 29 33 38 42 47 50 50 48 46 43 40 38 36 35 35 35 34 32 31 30 29 27 25 23 21 19 17 15 13 12 11 10 10 12 14 17 19 21 23 24 25 27 28
2 2 1 2 3 0 4 2 1 2 1 3 8 11 11 13 14 12 12 11 11 14 14 5 7 11 8 6 8 8 9 10 10 11 12 12 13 14 15 17 18 20 22 25 28 32 37 44 50 51 48 46 44 41 39 37 36 36 36 34 34 33 32 30 29 27 24 22 20 18 16 15 13 12 12 12 14 16 18 20 22 23 25 26 28 30
2 2 3 3 3 1 1 2 2 0 1 3 9 12 7 9 10 12 14 14 11 13 14 7 7 10 4 9 7 7 9 9 9 11 13 14 16 16 17 18 19 20 23 25 27 30 34 40 46 48 47 44 42 41 40 38 37 36 36 36 36 35 33 32 31 28 26 23 21 19 18 16 15 14 13 13 15 18 20 22 23 24 25 27 29 31
2 2 3 2 3 3 1 3 3 2 1 5 14 15 8 10 9 12 12 10 9 11 12 9 11 10 4 10 8 7 9 10 10 13 16 17 18 18 18 19 20 22 23 23 25 26 29 34 39 44 45 42 39 40 41 39 37 37 38 39 38 36 35 35 33 30 27 24 22 20 19 18 17 16 15 15 18 20 22 23 24 25 26 28 30 31
2 3 2 1 4 2 1 3 4 4 1 7 11 11 12 14 14 11 9 10 12 11 9 9 11 7 4 7 8 7 8 10 13 17 21 21 20 19 20 20 20 20 20 20 20 21 22 25 28 34 39 39 38 37 36 36 37 39 40 40 39 38 38 37 34 31 28 25 23 22 21 20 19 17 16 17 20 23 24 25 25 26 27 29 30 32
3 4 2 2 3 1 0 2 3 3 7 7 1 2 8 14 16 14 13 14 13 11 9 8 7 5 4 7 8 9 11 16 20 23 23 22 20 20 20 19 17 17 18 18 18 17 16 16 17 22 27 30 30 28 28 31 35 38 40 40 39 39 40 39 36 32 28 26 24 23 22 22 20 18 18 20 23 24 25 26 26 27 28 30 31 32
5 5 3 2 2 1 2 3 4 7 7 3 3 2 2 6 11 13 14 13 11 12 11 10 10 8 6 9 13 15 16 19 21 22 21 20 20 19 17 16 16 16 18 18 17 16 14 14 14 16 19 21 22 22 24 28 31 34 38 40 40 40 41 40 36 32 29 27 25 25 24 23 21 20 21 23 24 26 26 26 26 27 28 30 32 32
6 6 2 2 3 2 2 6 7 3 4 4 1 1 1 3 5 5 9 10 9 10 10 12 12 8 6 12 17 15 13 12 14 18 21 20 20 19 17 17 18 17 16 15 14 14 14 15 16 16 17 19 20 22 24 26 28 30 34 38 40 40 41 40 37 33 29 27 27 26 24 22 21 22 23 24 26 26 26 26 26 27 29 31 32 31
5 5 3 4 4 2 3 7 5 5 8 10 7 5 7 7 6 5 7 8 7 10 12 11 10 7 8 13 14 10 7 6 8 17 24 23 21 20 19 19 17 15 14 13 13 14 14 16 16 17 18 18 19 20 21 22 24 27 30 35 38 39 40 39 37 34 30 29 28 26 24 22 22 23 24 25 26 27 26 26 27 28 30 32 32 31
3 3 4 5 5 4 4 6 5 5 9 11 6 5 8 10 7 5 5 4 3 11 17 14 10 11 9 8 8 7 5 4 5 11 19 19 15 16 17 17 15 13 13 15 15 16 17 17 17 17 16 16 16 15 15 16 18 21 26 31 35 37 38 38 37 34 32 30 29 25 23 22 22 23 24 25 27 27 27 27 27 29 31 31 31 30
2 1 2 4 5 5 6 7 7 7 8 7 2 3 7 12 11 8 2 4 3 12 20 16 11 11 9 8 11 10 5 4 5 9 15 14 10 10 12 13 14 14 15 17 17 17 17 16 16 15 15 14 14 14 13 14 15 18 22 27 31 33 34 34 34 34 32 30 27 24 22 22 22 22 24 26 28 28 28 28 28 29 30 30 31 30
4 3 4 6 7 7 8 7 6 5 4 2 0 2 8 13 13 7 4 4 5 13 19 18 15 14 13 13 14 9 5 7 8 11 14 12 8 9 10 11 13 15 16 16 16 16 16 15 15 15 15 15 15 15 16 16 16 18 20 23 26 29 30 29 30 31 31 29 25 23 22 22 22 23 25 27 28 28 28 28 29 29 30 30 31 30
3 3 4 6 7 9 11 8 5 4 3 1 2 9 13 11 7 6 4 4 10 15 18 21 20 18 16 16 15 11 14 18 16 14 10 6 6 9 10 11 13 15 15 16 16 15 15 15 14 15 15 15 16 17 18 19 19 19 19 21 24 26 25 26 28 30 30 27 25 23 22 22 22 24 26 28 29 29 29 29 29 30 30 30 30 30
3 3 3 5 6 7 9 7 5 4 4 6 7 11 13 7 2 4 4 9 16 17 16 20 19 15 15 18 18 19 22 22 20 16 10 7 8 10 10 11 13 14 14 14 14 13 13 13 14 15 16 17 18 19 19 20 21 20 20 22 24 24 24 26 29 29 28 26 24 23 22 23 24 25 27 29 29 29 29 29 29 30 30 30 30 30
5 5 3 5 5 3 3 5 5 5 5 16 15 7 5 4 2 6 9 11 13 13 13 18 18 15 16 19 21 23 22 19 18 16 12 11 11 11 11 12 13 12 12 12 11 11 11 12 13 15 16 18 20 20 21 21 21 21 23 24 24 23 25 28 28 28 27 26 25 24 24 24 25 27 28 29 29 29 29 29 29 29 29 29 30 30
5 5 4 4 5 5 4 7 4 3 8 25 19 5 8 10 5 9 10 10 11 11 11 13 14 15 18 20 21 22 22 20 18 14 12 13 13 13 13 14 13 13 14 13 12 11 11 12 13 15 17 20 21 22 23 24 24 24 25 25 24 25 27 28 28 29 29 27 26 25 25 26 27 28 29 29 30 30 29 29 29 29 29 29 30 30
3 3 2 2 3 4 3 3 0 2 12 27 17 3 11 18 9 5 6 7 9 10 10 11 13 15 17 19 19 19 21 21 18 15 13 13 13 14 15 15 16 16 15 14 14 14 14 14 15 17 20 22 24 25 26 26 26 27 26 24 24 25 27 29 31 31 31 29 28 27 27 27 27 28 29 29 30 30 29 29 29 28 28 29 29 30
0 2 2 1 1 2 2 1 2 1 12 25 17 4 9 15 12 9 8 7 7 9 10 12 13 13 15 18 19 19 20 19 17 16 15 14 15 16 17 17 18 18 18 18 18 17 18 18 18 19 22 24 27 29 29 28 29 29 27 26 25 26 28 30 33 34 32 31 29 28 28 28 28 29 29 30 30 30 29 29 29 29 29 28 29 30
1 4 4 1 2 3 1 4 5 1 8 20 19 10 8 12 13 13 12 11 11 12 12 12 12 13 14 17 18 19 19 17 17 16 16 16 18 18 18 19 20 21 22 23 22 21 21 21 21 21 23 25 29 32 32 31 31 30 29 29 29 29 30 32 34 35 34 33 31 30 29 28 28 29 29 30 30 29 29 29 29 29 28 28 29 30
4 7 5 4 4 2 0 2 3 1 5 14 19 17 14 15 15 14 14 14 15 15 15 14 14 14 15 16 18 19 20 19 19 18 18 19 20 19 20 22 22 23 24 25 25 25 24 24 24 24 24 26 28 32 35 34 33 32 32 32 32 32 33 34 36 36 36 34 32 31 30 29 29 29 30 30 30 29 29 28 29 29 28 28 29 31
5 7 4 2 2 1 1 2 3 2 3 9 17 20 19 18 17 16 16 17 18 18 17 17 16 16 17 18 19 20 21 21 21 21 21 21 21 21 22 23 23 23 24 25 27 28 29 28 27 27 27 27 27 30 36 38 37 36 35 35 35 34 34 36 37 38 38 36 34 32 31 30 29 29 29 30 29 29 28 28 28 29 29 29 29 31
6 5 3 3 3 3 3 7 9 4 2 8 16 20 20 19 19 19 19 19 19 19 20 19 19 19 20 21 21 21 22 23 22 22 22 22 22 23 23 24 24 25 25 24 26 28 31 32 31 30 30 29 28 30 34 37 40 41 40 39 38 37 37 37 38 40 40 38 35 33 31 30 30 30 30 30 29 28 28 27 27 28 29 29 30 30
11 8 6 6 5 4 4 12 17 13 8 11 16 17 16 17 18 19 19 19 19 19 19 19 20 21 22 22 21 21 22 22 20 20 22 22 23 23 23 24 25 25 25 25 26 28 30 32 33 34 33 32 31 32 33 36 39 42 44 44 42 41 40 39 39 40 41 39 36 34 32 31 30 30 30 29 29 28 27 27 27 27 29 30 30 29
Wind_Direction
182 187 199 217 214 198 196 206 219 90 85 151 190 234 243 251 260 211 123 95 74 260 255 250 260 268 259 152 126 142 152 160 168 171 172 167 165 163 162 161 159 161 159 150 141 136 135 133 129 125 118 115 115 115 116 118 118 115 116 120 120 118 120 125 128 132 139 144 151 161 171 172 160 162 175 174 173 173 177 176 165 180 177 174 202 219
188 213 222 221 201 172 194 199 181 130 162 201 230 244 244 246 256 235 118 103 153 235 250 210 256 263 248 129 119 158 177 178 181 186 179 172 168 164 165 167 165 163 158 148 143 142 141 137 133 133 128 123 123 120 119 123 122 120 121 120 118 116 117 122 130 136 144 147 156 166 164 154 139 134 144 143 130 117 113 110 109 112 101 90 87 84
201 228 230 203 100 97 118 164 190 211 216 219 229 244 253 246 256 247 124 109 168 221 236 138 261 266 215 114 120 163 185 177 174 195 185 174 167 167 171 171 167 162 153 148 147 142 136 133 132 134 134 132 130 128 126 126 124 124 124 120 115 115 114 113 119 124 126 126 127 126 121 119 116 114 113 109 100 90 90 91 87 85 77 68 62 60
205 234 227 153 128 147 137 153 185 207 222 221 218 233 245 221 220 247 156 129 164 233 288 296 276 269 180 129 130 133 149 139 133 176 183 181 178 179 180 175 169 164 158 154 149 141 135 132 131 132 132 132 130 128 128 126 125 124 121 118 117 115 112 108 107 105 102 101 102 103 105 108 108 105 102 98 94 91 88 87 83 79 73 66 63 61
209 351 155 148 160 185 173 160 183 204 225 220 215 228 243 227 221 241 119 126 193 205 234 256 274 263 193 184 178 135 150 157 152 173 180 187 189 186 182 179 174 168 161 154 148 142 137 134 132 131 129 127 126 125 124 124 122 120 116 114 112 108 103 100 97 94 92 92 94 97 101 103 100 97 97 97 95 94 90 86 81 75 70 65 61 59
221 97 129 141 158 189 186 186 197 207 229 227 216 223 239 244 228 209 142 201 243 221 184 221 259 238 157 197 187 149 177 178 174 196 194 191 190 187 184 181 177 168 160 153 148 143 138 136 133 130 127 125 124 123 122 120 118 114 112 110 107 104 100 97 94 91 88 89 90 92 95 95 97 100 101 97 93 92 88 83 79 75 71 65 61 58
197 138 143 142 155 176 192 215 199 193 222 241 222 220 228 238 220 185 179 201 246 255 128 232 261 245 191 197 161 160 196 186 186 210 207 200 195 192 191 184 175 166 160 154 148 144 140 137 133 130 128 126 124 121 119 116 114 111 109 107 106 105 103 100 97 94 91 90 91 92 96 101 106 111 108 102 96 92 87 83 82 80 75 69 63 58
148 158 168 169 165 170 197 222 184 178 208 225 47 198 198 203 202 194 194 208 254 328 150 201 270 276 263 217 128 156 199 200 200 212 212 207 199 196 194 185 175 168 161 154 149 146 142 139 135 132 130 127 124 121 118 116 114 113 111 111 111 109 108 105 102 100 96 94 96 99 106 114 116 118 115 109 101 94 92 93 90 85 79 73 66 59
140 174 191 182 177 195 205 204 159 175 206 287 57 76 130 159 184 183 195 215 265 309 234 198 158 252 257 204 126 158 217 233 208 201 208 202 195 195 192 184 176 169 162 155 151 147 143 140 137 134 132 129 126 123 121 120 118 118 118 117 118 116 113 111 108 108 109 107 110 114 119 126 126 124 119 113 108 104 103 102 95 89 83 76 69 62
64 198 200 179 185 205 183 45 160 186 196 139 127 97 92 87 92 134 199 191 145 243 245 196 169 225 257 195 177 175 227 239 203 192 201 192 189 193 190 184 178 171 163 157 152 148 145 143 140 138 136 133 130 128 126 126 126 127 127 126 127 123 118 116 118 122 126 127 132 134 134 139 134 126 120 117 114 110 107 102 95 88 80 74 66 59
52 51 171 190 204 161 112 60 23 158 135 143 143 107 97 89 88 101 162 137 210 238 241 173 175 229 257 208 205 198 198 190 166 177 186 181 188 193 190 186 180 172 165 159 154 151 148 147 145 144 141 138 137 136 134 134 135 134 134 134 133 129 125 127 131 139 145 147 151 147 143 140 132 125 123 123 118 111 108 101 92 83 74 67 57 49
57 165 170 194 169 118 107 82 41 46 135 158 155 135 129 120 133 152 137 182 242 233 156 60 135 226 231 216 210 202 166 152 165 174 177 180 188 190 189 188 182 174 168 162 158 155 153 152 151 149 146 146 145 145 145 144 143 142 140 143 147 143 141 143 147 154 159 159 156 148 143 137 129 127 128 126 120 112 104 92 82 73 63 53 43 34
201 208 147 137 167 164 149 108 85 81 198 205 165 163 179 170 171 201 183 197 242 232 98 63 171 220 234 248 254 221 189 191 182 160 173 180 183 184 188 188 183 178 172 165 162 161 160 159 157 155 154 154 154 153 153 152 151 152 151 156 165 160 156 158 158 161 162 159 151 144 140 136 131 131 131 125 118 111 97 83 72 60 50 38 27 19
206 215 152 168 189 192 186 160 156 175 189 195 177 178 191 170 178 206 185 225 263 210 94 32 247 224 235 255 257 231 128 90 114 127 173 178 177 182 187 189 185 181 175 170 168 167 166 165 163 162 162 163 162 161 161 161 160 164 164 167 177 174 165 163 163 164 163 158 150 146 143 138 137 137 134 127 118 106 89 73 53 35 29 16 8 5
211 238 177 179 165 178 191 201 163 151 169 190 177 187 202 184 197 206 189 222 246 120 124 142 231 200 178 175 321 338 10 12 189 185 179 174 176 182 187 189 188 184 180 175 173 172 172 171 169 169 171 170 170 170 170 170 170 174 174 174 183 182 171 168 169 169 169 165 156 152 149 143 142 139 133 124 107 86 59 37 19 8 5 358 355 353
216 249 154 147 133 164 183 204 76 124 155 182 54 214 229 210 177 142 136 151 86 69 186 178 235 226 174 86 45 330 285 202 194 188 175 174 180 185 189 191 191 189 185 180 178 177 176 176 176 176 177 177 176 176 177 179 180 182 182 181 186 187 179 176 177 177 176 171 163 157 153 148 143 136 126 110 78 54 27 10 359 352 350 347 345 342
205 237 68 49 80 150 176 146 124 160 158 151 181 198 220 348 99 126 131 71 81 263 230 172 224 231 167 225 168 156 231 192 179 177 173 174 180 187 193 196 195 192 188 185 183 182 181 181 182 182 183 182 182 182 184 186 187 188 191 191 190 191 187 184 184 183 180 175 168 162 158 155 151 143 130 114 75 39 19 2 354 351 348 345 343 339
189 163 83 90 109 97 52 109 93 352 115 149 190 186 143 12 360 168 202 115 158 249 253 182 217 207 183 209 156 165 216 207 187 173 170 176 184 193 199 201 199 195 192 190 187 186 186 186 186 187 187 186 186 189 191 193 192 192 195 197 197 198 195 192 190 187 183 178 174 170 167 166 162 158 154 129 66 23 11 356 349 346 343 341 340 337
203 178 116 83 129 126 125 150 138 20 325 236 204 162 122 211 201 173 193 183 188 236 252 194 212 218 203 192 161 189 213 202 180 171 176 189 193 198 203 203 201 198 196 193 190 190 191 190 190 190 190 190 191 194 196 196 196 195 196 198 199 201 199 197 194 189 185 182 179 178 176 175 172 167 162 84 15 1 351 342 338 337 335 334 334 334
201 226 177 125 111 121 154 208 193 173 142 16 154 161 294 265 212 170 172 197 205 226 252 218 204 212 204 184 172 190 205 188 168 174 193 200 200 201 203 204 203 201 198 196 194 194 194 193 194 193 193 194 196 198 199 198 199 199 199 200 200 201 200 199 196 192 189 185 183 184 182 180 181 178 184 333 343 342 337 334 333 332 331 331 331 332
170 234 197 128 112 170 182 206 201 181 164 166 177 179 186 173 21 248 191 119 231 228 233 254 260 211 162 170 176 182 193 176 168 181 198 200 203 205 206 205 203 201 200 199 197 197 196 196 196 195 196 198 200 202 201 200 201 202 202 203 202 203 204 201 197 194 192 190 187 188 188 188 193 205 265 322 333 336 335 334 333 332 330 331 330 329
183 211 175 148 180 198 190 90 266 213 185 185 191 184 181 166 149 202 209 166 294 263 224 246 277 240 136 152 186 156 150 173 179 189 193 198 205 209 210 207 205 204 202 201 200 199 199 198 198 198 199 201 203 204 203 202 204 205 205 205 206 206 206 204 201 197 195 195 194 194 196 201 211 236 289 325 334 336 336 334 333 331 330 329 328 326
137 157 158 155 185 197 201 35 345 281 305 279 243 195 184 181 174 197 212 175 150 241 26 35 285 277 119 71 45 88 32 215 203 204 200 203 208 211 211 209 208 207 205 205 203 202 202 201 200 202 203 206 207 206 205 205 206 207 207 207 208 208 207 205 204 202 200 200 201 202 204 210 223 254 303 329 334 335 334 332 331 330 328 327 326 324
146 180 170 143 95 79 24 38 170 344 284 241 247 209 197 200 184 205 209 149 173 191 153 167 245 242 160 90 9 15 339 305 234 218 212 212 213 213 213 211 210 210 209 209 208 206 206 205 204 206 208 210 210 208 208 208 208 208 208 209 210 210 209 208 207 206 205 205 207 209 210 215 231 267 307 325 330 330 330 330 330 330 328 327 325 324
177 192 166 144 152 180 199 221 211 191 198 219 215 182 207 171 98 71 95 136 223 200 164 198 242 224 140 257 309 347 262 256 237 223 218 214 214 216 215 212 211 211 212 213 212 211 209 208 208 210 211 213 212 210 209 210 210 209 210 211 212 212 212 212 212 210 209 210 213 214 215 220 238 270 300 315 321 325 326 327 328 329 329 327 325 322
183 198 175 174 190 196 197 215 210 175 161 208 180 168 206 179 155 160 156 184 226 186 157 205 243 220 113 215 247 224 205 235 223 214 218 217 219 222 218 214 213 214 216 216 216 214 213 212 212 213 214 215 214 212 211 212 212 211 211 213 214 215 215 215 214 212 212 214 215 216 218 226 244 266 287 303 313 319 321 322 323 325 326 325 323 321
176 217 212 212 219 199 177 205 138 125 144 187 184 170 193 197 187 188 187 200 201 151 179 223 235 241 213 186 203 205 191 218 212 195 209 216 218 220 217 215 217 219 220 220 219 219 216 216 216 216 217 217 216 214 214 215 213 212 213 215 214 215 217 217 216 214 214 216 216 217 222 232 247 263 277 291 304 313 316 316 317 320 321 321 322 322
138 211 223 236 260 48 61 51 127 138 169 190 186 183 195 194 187 196 209 203 139 139 233 233 206 235 240 188 182 198 195 213 215 195 202 207 210 213 212 214 219 223 226 225 224 224 221 220 220 220 220 219 217 216 216 216 215 215 216 217 216 216 218 220 218 216 217 217 218 220 226 236 248 259 269 283 298 308 311 311 312 315 317 318 320 321
147 219 216 216 242 26 52 44 154 130 156 194 195 197 197 185 183 198 214 201 148 193 244 215 156 225 245 194 181 195 192 201 207 203 203 200 204 212 215 220 225 230 233 234 233 232 229 227 225 224 223 221 219 217 217 216 216 217 218 218 219 219 220 220 218 218 218 219 221 225 230 239 248 255 265 280 295 303 305 306 308 311 313 316 318 320
163 207 133 166 216 11 45 39 132 141 174 218 215 215 203 186 183 194 215 213 197 222 244 210 177 236 241 160 177 196 191 196 200 204 206 205 209 216 220 225 229 233 238 241 242 241 237 234 230 228 227 224 221 219 218 219 219 220 219 220 221 221 221 220 219 219 220 221 224 228 235 242 248 253 263 277 290 297 300 302 304 307 310 314 315 317
224 176 109 135 181 160 80 69 58 40 221 223 238 237 204 160 177 203 222 222 212 231 247 238 236 252 199 143 169 189 184 191 199 207 213 215 217 220 224 228 230 235 241 244 246 247 244 240 235 233 231 228 224 223 223 224 224 223 223 222 222 222 222 221 219 220 221 223 227 232 239 244 248 252 262 275 286 293 296 298 300 303 307 310 313 315
232 171 84 103 193 200 142 128 115 66 22 259 253 242 183 146 191 215 221 220 205 220 238 237 243 251 170 147 172 183 188 201 209 213 218 220 221 225 232 236 240 245 248 250 252 253 251 247 242 239 236 231 228 228 229 229 228 227 227 225 223 223 222 221 220 220 222 225 230 236 242 246 249 253 262 275 286 290 293 296 297 301 305 308 311 314
168 153 109 158 192 199 60 146 140 107 185 244 249 226 183 184 209 219 222 223 209 207 220 225 235 242 142 150 184 187 194 210 218 222 226 228 230 236 242 245 248 252 252 254 256 257 257 255 252 248 241 233 230 232 235 235 234 234 232 228 225 224 223 221 220 221 224 227 233 240 245 248 250 255 266 278 285 289 292 294 296 300 304 308 311 313
156 158 164 176 181 213 56 132 136 177 225 240 252 168 192 200 207 215 224 221 208 206 222 236 247 241 151 159 189 197 207 220 228 233 235 235 238 244 247 247 249 251 250 251 252 253 254 251 249 247 240 233 231 234 237 239 239 239 235 230 226 224 223 222 221 222 226 230 236 243 247 249 252 259 271 279 285 288 290 292 295 299 304 308 311 312
173 179 188 168 151 150 127 146 184 212 232 253 45 39 240 200 197 215 233 231 210 206 218 234 245 237 197 193 210 218 220 224 229 235 237 239 244 246 247 247 250 251 249 247 246 245 240 234 232 232 229 228 228 230 233 236 239 240 235 229 227 226 224 223 222 224 229 234 240 245 248 251 255 264 274 280 284 287 288 290 295 300 305 308 310 309
179 180 175 155 147 123 143 184 205 248 305 293 252 149 156 134 147 199 247 245 211 191 201 219 230 227 206 215 223 225 227 230 238 244 245 247 249 248 247 251 253 251 248 245 243 239 233 230 230 228 226 227 227 227 230 232 234 236 234 229 227 227 226 224 223 226 232 238 243 247 250 254 260 269 276 280 283 284 286 290 295 300 305 307 307 306
181 179 181 191 185 165 185 209 232 319 311 275 244 174 167 175 159 179 239 245 194 178 195 213 225 222 214 220 222 219 228 247 265 264 261 259 256 253 254 256 252 245 239 236 234 231 228 227 228 226 224 224 224 225 227 227 227 228 228 227 226 227 226 224 225 228 235 241 246 249 253 257 264 271 276 280 281 283 286 290 295 300 303 304 304 303
205 198 192 204 206 182 193 225 243 256 260 257 242 153 172 188 165 153 231 257 166 181 194 200 217 225 214 201 191 185 209 251 272 266 263 264 262 256 251 245 238 231 226 226 227 229 229 230 229 228 225 224 225 226 226 225 222 219 220 222 224 225 225 225 227 231 237 243 248 250 254 258 264 272 277 280 281 282 285 289 294 298 300 301 302 302
219 239 200 216 219 197 200 220 223 226 244 256 265 110 168 171 140 111 228 254 176 187 194 193 207 226 217 185 172 168 180 229 248 256 260 267 268 249 235 227 223 220 219 220 223 226 228 229 231 231 231 231 234 235 233 230 224 217 216 219 222 225 227 228 230 233 238 245 248 249 252 257 264 272 276 279 280 281 284 288 292 295 298 300 301 301
193 198 207 220 221 213 214 220 225 238 258 273 325 146 160 154 139 137 246 251 173 187 194 192 201 222 223 199 178 167 190 216 233 257 262 263 253 225 213 209 211 212 212 214 216 219 222 226 229 232 235 236 237 238 236 233 227 219 217 219 222 225 228 229 231 235 240 244 244 244 250 256 264 270 274 277 278 280 282 286 290 293 296 298 300 300
186 194 203 218 225 224 223 228 245 248 227 205 176 164 151 138 148 201 232 174 167 183 190 190 199 215 215 194 178 191 225 229 235 249 250 232 214 212 207 202 200 201 203 206 210 215 219 223 227 230 233 235 235 234 232 229 224 219 217 219 222 225 228 231 234 238 239 239 239 243 250 256 263 268 272 275 277 279 282 285 288 292 295 297 299 298
174 176 197 218 223 226 231 239 259 256 193 139 140 157 154 144 206 217 158 145 164 178 185 189 198 213 216 205 202 217 232 235 235 237 231 210 206 207 203 201 199 200 204 209 214 218 221 225 228 229 229 229 228 228 226 224 221 219 218 221 225 229 232 235 237 237 235 236 239 244 249 256 262 267 271 273 276 278 280 283 287 291 294 295 297 296
168 160 183 215 203 196 241 228 231 268 164 139 131 138 186 203 164 135 136 150 168 180 188 193 200 212 219 220 223 227 231 233 232 230 224 215 210 204 206 210 209 211 217 221 225 230 235 240 240 236 232 229 226 224 221 220 220 220 222 226 230 234 237 239 238 235 234 237 241 245 250 256 261 265 269 272 274 276 278 282 286 290 292 294 295 294
184 176 194 219 187 168 210 209 208 324 164 159 153 156 202 195 142 118 144 168 180 186 194 199 208 216 218 222 226 227 227 230 234 233 225 218 218 219 221 222 221 225 230 234 238 245 250 253 251 245 238 232 227 224 221 220 221 222 225 230 233 236 239 240 238 236 236 239 241 244 250 255 259 264 267 270 273 275 277 282 286 289 292 293 294 293
209 177 182 222 192 179 217 216 181 28 171 175 177 182 186 187 183 162 178 183 182 192 205 213 220 224 222 223 224 226 230 235 239 242 240 236 236 236 235 234 234 237 240 241 243 248 254 258 257 249 242 235 228 224 223 223 224 226 230 233 235 236 238 240 239 238 239 240 242 244 249 253 258 263 266 269 272 274 277 282 286 289 291 292 292 291
16 111 126 97 227 239 279 170 148 165 186 188 193 179 171 190 206 216 213 204 200 214 224 227 231 233 229 226 226 228 233 236 239 244 246 246 245 243 242 242 242 244 244 241 242 246 250 254 254 249 245 238 230 226 226 226 228 232 235 236 235 237 239 239 240 241 241 241 242 244 248 253 257 262 265 268 271 274 278 283 287 288 290 291 290 291
184 163 168 194 221 226 225 158 155 166 197 197 200 199 188 201 215 222 225 226 227 232 236 240 245 244 239 236 235 236 240 240 239 240 240 240 242 241 242 244 246 247 248 246 246 247 246 247 248 248 248 243 235 230 230 231 233 236 237 237 237 239 240 240 241 242 241 241 242 244 248 252 257 260 264 267 270 274 278 283 286 288 289 290 290 291
180 162 179 231 216 182 113 176 185 249 216 205 210 214 212 213 217 221 227 232 237 243 244 245 248 247 247 247 244 243 246 244 242 241 238 237 239 240 242 245 248 249 250 249 246 244 243 244 245 247 248 248 243 238 235 236 238 239 239 239 240 240 242 243 243 243 242 241 242 244 248 252 255 259 263 266 269 274 278 282 285 287 288 289 290 292
145 161 181 200 174 164 302 212 196 284 274 225 218 218 219 222 225 225 230 235 240 246 250 250 252 254 255 255 251 248 248 247 245 245 243 242 242 241 243 247 250 251 253 252 249 246 245 247 249 249 250 251 250 245 242 241 242 242 241 242 242 242 244 246 245 244 243 241 241 244 248 251 254 258 262 265 269 273 278 281 285 287 288 288 290 293
162 191 177 127 167 216 207 177 176 183 246 226 219 220 224 228 229 230 236 242 246 250 254 256 259 261 261 260 258 254 253 252 252 251 250 251 250 249 249 252 253 254 255 255 253 251 250 250 252 253 253 253 252 250 248 246 246 245 245 244 244 244 245 247 248 247 244 241 240 243 247 250 254 258 261 264 269 273 277 280 283 285 286 286 289 292
195 206 174 166 217 246 182 178 189 201 222 228 227 230 234 236 236 238 243 250 253 256 259 262 264 266 267 267 265 262 261 261 261 258 258 259 258 258 259 258 258 258 258 256 256 256 255 255 255 255 255 255 255 254 253 251 249 249 248 248 247 246 246 247 249 249 246 241 240 243 248 250 253 257 260 264 269 273 276 279 281 282 284 286 289 292